Location: Geyikbay?r?
(36.8756°N, 30.4583°E)
Time: 07:29:04
(UTC+00:00)

ASTRO E2 - Pass Details

Date: 05 August 2024
Orbit: 396 x 402 km, 31.4° (Epoch: 10 September)

Event Time Altitude Azimuth Distance (km) Brightness Sun altitude
Rises 18:49:21 0° 261° (W) 2,309 6.6 -19.5°
Reaches altitude 10° 18:51:41 10° 247° (WSW) 1,442 5.3 -19.8°
Enters shadow 18:53:17 20° 224° (SW) 977 4.1 -20.1°
